Flag for Germany Weather past 2 weeks in Cologne, North Rhine-Westphalia, Germany

Now
61 °F

Scattered clouds.


Feels Like: 61 °F
Forecast: 52 / 65 °F
Wind: 15 mph from West

Location: Koeln / Bonn

Current Time: Jul 8, 2015 at 9:19:37 AM

Latest Report: Jul 8, 2015 at 8:50 AM


Visibility: N/A

Pressure: 29.86 "Hg

Humidity: 68%

Dew point: 50 °F

Location of CologneLocation

Historic Weather in Cologne — Graph

°F

Cologne temperature yesterday

Maximum temperature yesterday: 88 °F (at 12:50 PM)
Minimum temperature yesterday: 55 °F (at 2:50 AM)
Average temperature yesterday: 70 °F

Past Weeks' High & Low Weather Summary

 TemperatureHumidityPressure
High97 °F (Jul 2, 4:20 PM)94% (Jun 23, 4:20 PM)30.24 "Hg (Jun 23, 4:20 PM)
Low50 °F (Jun 25, 2:20 AM)17% (Jun 30, 3:50 PM)29.74 "Hg (Jul 7, 3:50 PM)
Average71 °F60%30.09 "Hg
* Reported Jun 23 8:20 AM — Jul 8 8:20 AM, Cologne, Weather by CustomWeather, © 2015

Note: Actual official high and low records may vary slightly from our data, if they occured in-between our weather recording intervals... More about our weather records

Advertising

Cologne weather history for previous 24 hours

 ConditionsComfort  
Time TempWeatherWind HumidityBarometerVisibility
8:20 AM
Wed, Jul 8
59 °FPartly sunny.15 mph72%29.86 "HgN/A
7:50 AM57 °FPartly sunny.9 mph77%29.86 "HgN/A
7:20 AM57 °FPartly sunny.13 mph77%29.86 "HgN/A
6:50 AM57 °FPartly sunny.13 mph72%29.86 "HgN/A
6:20 AM57 °FPassing clouds.13 mph72%29.86 "HgN/A
5:20 AM57 °FPassing clouds.9 mph72%29.86 "HgN/A
4:50 AM57 °FPassing clouds.14 mph77%29.83 "HgN/A
4:20 AM57 °FPassing clouds.13 mph77%29.83 "HgN/A
3:50 AM59 °FPassing clouds.13 mph72%29.83 "HgN/A
3:20 AM57 °FClear.12 mph82%29.83 "Hg10 mi
2:50 AM59 °FClear.14 mph77%29.80 "Hg10 mi
2:20 AM59 °FClear.12 mph77%29.80 "Hg10 mi
1:20 AM61 °FClear.15 mph83%29.80 "Hg10 mi
12:50 AM63 °FSprinkles. Partly cloudy.20 mph88%29.80 "HgN/A
12:20 AM68 °FSprinkles. Passing clouds.8 mph73%29.77 "HgN/A
11:50 PM
Tue, Jul 7
68 °FClear.7 mph69%29.77 "Hg10 mi
11:20 PM68 °FClear.9 mph64%29.77 "Hg10 mi
10:50 PM70 °FClear.13 mph60%29.77 "Hg10 mi
10:20 PM70 °FSunny.14 mph60%29.77 "Hg10 mi
9:50 PM70 °FSunny.9 mph69%29.74 "Hg10 mi
9:20 PM70 °FSunny.8 mph69%29.74 "Hg10 mi
8:50 PM70 °FSunny.8 mph69%29.74 "Hg10 mi
8:20 PM70 °FSunny.8 mph69%29.77 "Hg10 mi
7:50 PM70 °FPartly sunny.8 mph73%29.77 "HgN/A
7:20 PM70 °FPartly sunny.12 mph69%29.77 "HgN/A
6:50 PM70 °FBroken clouds.12 mph73%29.77 "HgN/A
6:20 PM70 °FBroken clouds.13 mph78%29.77 "HgN/A
5:50 PM72 °FSprinkles. Broken clouds.6 mph83%29.77 "HgN/A
5:20 PM72 °FSprinkles. Broken clouds.2 mph83%29.80 "HgN/A
4:50 PM72 °FSprinkles. Broken clouds.8 mph83%29.80 "HgN/A
4:20 PM73 °FThunderstorms. Scattered clouds.13 mph78%29.80 "HgN/A
3:50 PM86 °FThundershowers. Broken clouds.10 mph38%29.74 "HgN/A
3:20 PM88 °FSunny.9 mph35%29.77 "Hg10 mi
2:50 PM88 °FSunny.8 mph35%29.77 "Hg10 mi
2:20 PM86 °FSunny.10 mph38%29.77 "Hg10 mi
1:50 PM86 °FSunny.9 mph33%29.80 "Hg10 mi
1:20 PM88 °FSunny.8 mph35%29.80 "Hg10 mi
12:50 PM88 °FSunny.9 mph31%29.83 "Hg10 mi
12:20 PM86 °FSunny.7 mph33%29.83 "Hg10 mi
11:50 AM84 °FSunny.8 mph35%29.83 "Hg10 mi
11:20 AM84 °FSunny.8 mph37%29.86 "Hg10 mi
10:50 AM81 °FSunny.9 mph39%29.86 "Hg10 mi
10:20 AM79 °FSunny.8 mph45%29.89 "Hg10 mi
9:50 AM75 °FSunny.8 mph44%29.89 "Hg10 mi
9:20 AM73 °FSunny.7 mph50%29.89 "Hg10 mi
Weather by CustomWeather, © 2015

See weather overviewHow to use our weather pages